Location: *
(43.7000°S, 168.7000°W)
Time: 14:39:27
(UTC+00:00)

CSL-04 Rocket - Pass Details

Date: 07 July 2020
Orbit: 805 x 861 km, 98.9° (Epoch: 03 August)

Event Time Altitude Azimuth Distance (km) Brightness Sun altitude
Rises 18:07:13 0° 14° (NNE) 3,331 7.4 -7.3°
Reaches altitude 10° 18:09:31 10° 13° (NNE) 2,413 6.6 -6.9°
Maximum altitude 18:14:53 83° 284° (WNW) 846 3.7 -6.0°
Drops below altitude 10° 18:20:24 10° 196° (SSW) 2,479 5.8 -5.1°
Sets 18:22:48 0° 194° (SSW) 3,429 6.5 -4.8°
